When you browse on this site, cookies collect data to enhance your experience and personalize the content and advertising you see.
Visit our Privacy Policy to learn more. By continuing to use the site, you agree to this use of cookies and data.
  • In United Kingdom
  • List of Countries
  • For 7 days
  • Water Temperature
  • Satellite Maps
  • Weather Map
  • Weather Widgets
  • user-avatar
    Login

    Hourly Weather Tonton

    Today, 10 December, Monday

    Time Temperature Precipitation Wind Pressure Humidity
    00:00 +5°C° 0 mm 6 mps 767 mmHg 84%
    01:00 +5°C° 0 mm 6 mps 767 mmHg 85%
    02:00 +5°C° 0 mm 6 mps 767 mmHg 85%
    03:00 +5°C° 0 mm 6 mps 768 mmHg 85%
    04:00 +6°C° 0 mm 5 mps 768 mmHg 86%
    05:00 +5°C° 0 mm 5 mps 768 mmHg 87%
    06:00 +5°C° 0 mm 5 mps 769 mmHg 88%
    07:00 +5°C° 0 mm 5 mps 769 mmHg 88%
    08:00 +5°C° 0 mm 4 mps 769 mmHg 87%
    09:00 +5°C° 0 mm 4 mps 769 mmHg 87%
    10:00 +6°C° 0 mm 4 mps 769 mmHg 83%
    11:00 +8°C° 0 mm 4 mps 770 mmHg 79%
    12:00 +10°C° 0 mm 4 mps 770 mmHg 74%
    13:00 +9°C° 0 mm 3 mps 770 mmHg 76%
    14:00 +9°C° 0 mm 3 mps 769 mmHg 78%
    15:00 +9°C° 0 mm 2 mps 769 mmHg 80%
    16:00 +8°C° 0 mm 2 mps 769 mmHg 82%
    17:00 +8°C° 0 mm 2 mps 769 mmHg 85%
    18:00 +7°C° 0 mm 2 mps 769 mmHg 87%
    19:00 +7°C° 0 mm 2 mps 769 mmHg 88%
    20:00 +7°C° 0 mm 2 mps 769 mmHg 89%
    21:00 +7°C° 0 mm 2 mps 769 mmHg 91%
    22:00 +7°C° 0 mm 2 mps 769 mmHg 91%
    23:00 +7°C° 0 mm 2 mps 768 mmHg 91%

    Tomorrow, 11 December, Tuesday

    Time Temperature Precipitation Wind Pressure Humidity
    00:00 +7°C° 0 mm 2 mps 768 mmHg 92%
    01:00 +7°C° 0 mm 2 mps 768 mmHg 92%
    02:00 +7°C° 0 mm 2 mps 767 mmHg 93%
    03:00 +7°C° 0 mm 2 mps 767 mmHg 94%
    04:00 +8°C° 0 mm 2 mps 767 mmHg 94%
    05:00 +8°C° 0 mm 2 mps 766 mmHg 95%
    06:00 +8°C° 0 mm 3 mps 766 mmHg 95%
    07:00 +8°C° 0 mm 3 mps 766 mmHg 95%
    08:00 +8°C° 0 mm 3 mps 766 mmHg 94%
    09:00 +7°C° 0 mm 4 mps 766 mmHg 94%
    10:00 +8°C° 0 mm 4 mps 765 mmHg 91%
    11:00 +9°C° 0 mm 5 mps 765 mmHg 87%
    12:00 +10°C° 0 mm 5 mps 765 mmHg 84%
    13:00 +9°C° 0 mm 5 mps 764 mmHg 84%
    14:00 +9°C° 0 mm 5 mps 764 mmHg 84%
    15:00 +9°C° 0 mm 5 mps 763 mmHg 85%
    16:00 +8°C° 0 mm 6 mps 763 mmHg 86%
    17:00 +8°C° 0 mm 6 mps 762 mmHg 87%
    18:00 +7°C° 0 mm 6 mps 762 mmHg 89%
    19:00 +8°C° 0 mm 6 mps 762 mmHg 88%
    20:00 +8°C° 0 mm 6 mps 762 mmHg 88%
    21:00 +8°C° 0 mm 6 mps 761 mmHg 87%
    22:00 +8°C° 0.2 mm 6 mps 761 mmHg 88%
    23:00 +8°C° 0.2 mm 5 mps 761 mmHg 89%

    Day after tomorrow, 12 December, Wednesday

    Time Temperature Precipitation Wind Pressure Humidity
    00:00 +8°C° 0.2 mm 5 mps 761 mmHg 90%
    01:00 +8°C° 0.3 mm 5 mps 761 mmHg 90%
    02:00 +8°C° 0.3 mm 5 mps 761 mmHg 91%
    03:00 +7°C° 0.3 mm 5 mps 761 mmHg 92%
    04:00 +7°C° 0.1 mm 5 mps 761 mmHg 92%
    05:00 +7°C° 0.1 mm 5 mps 761 mmHg 92%
    06:00 +7°C° 0.1 mm 5 mps 761 mmHg 92%
    07:00 +7°C° 0.1 mm 5 mps 762 mmHg 92%
    08:00 +7°C° 0.1 mm 5 mps 762 mmHg 91%
    09:00 +7°C° 0.1 mm 5 mps 762 mmHg 90%
    10:00 +7°C° 0.1 mm 5 mps 762 mmHg 88%
    11:00 +7°C° 0.1 mm 6 mps 762 mmHg 87%
    12:00 +8°C° 0.1 mm 7 mps 762 mmHg 85%
    13:00 +6°C° 0 mm 7 mps 761 mmHg 85%
    14:00 +6°C° 0 mm 7 mps 761 mmHg 84%
    15:00 +6°C° 0 mm 7 mps 761 mmHg 84%
    16:00 +6°C° 0.1 mm 7 mps 760 mmHg 84%
    17:00 +5°C° 0.1 mm 8 mps 760 mmHg 84%
    18:00 +5°C° 0.1 mm 8 mps 759 mmHg 85%
    19:00 +5°C° 0.1 mm 8 mps 759 mmHg 84%
    20:00 +5°C° 0.1 mm 8 mps 759 mmHg 84%
    21:00 +5°C° 0.1 mm 8 mps 759 mmHg 84%
    22:00 +5°C° 0.2 mm 8 mps 758 mmHg 83%
    23:00 +5°C° 0.2 mm 8 mps 758 mmHg 83%

    13 December, Thursday

    Time Temperature Precipitation Wind Pressure Humidity
    00:00 +5°C° 0.2 mm 9 mps 757 mmHg 82%
    01:00 +5°C° 0.1 mm 9 mps 757 mmHg 82%
    02:00 +5°C° 0.1 mm 8 mps 756 mmHg 81%
    03:00 +4°C° 0.1 mm 8 mps 756 mmHg 80%
    04:00 +4°C° 0.1 mm 8 mps 755 mmHg 80%
    05:00 +4°C° 0.1 mm 8 mps 755 mmHg 79%
    06:00 +4°C° 0.1 mm 8 mps 755 mmHg 79%
    07:00 +4°C° 0.2 mm 8 mps 755 mmHg 78%
    08:00 +4°C° 0.2 mm 8 mps 755 mmHg 77%
    09:00 +4°C° 0.2 mm 8 mps 755 mmHg 76%
    10:00 +4°C° 0.2 mm 8 mps 755 mmHg 75%
    11:00 +4°C° 0.2 mm 8 mps 756 mmHg 75%
    12:00 +3°C° 0.2 mm 9 mps 756 mmHg 75%
    13:00 +4°C° 0.1 mm 8 mps 756 mmHg 75%
    14:00 +4°C° 0.1 mm 8 mps 757 mmHg 75%
    15:00 +4°C° 0.1 mm 8 mps 757 mmHg 75%
    16:00 +4°C° 0 mm 7 mps 758 mmHg 75%
    17:00 +3°C° 0 mm 7 mps 758 mmHg 76%
    18:00 +3°C° 0 mm 7 mps 759 mmHg 77%
    19:00 +2°C° 0 mm 7 mps 760 mmHg 78%
    20:00 +2°C° 0 mm 6 mps 760 mmHg 79%
    21:00 +2°C° 0 mm 6 mps 761 mmHg 80%
    22:00 +2°C° 0 mm 6 mps 761 mmHg 82%
    23:00 +1°C° 0 mm 6 mps 761 mmHg 83%

    14 December, Friday

    Time Temperature Precipitation Wind Pressure Humidity
    00:00 +1°C° 0 mm 5 mps 762 mmHg 84%
    01:00 +1°C° 0 mm 5 mps 762 mmHg 84%
    02:00 +1°C° 0 mm 5 mps 762 mmHg 84%
    03:00 0°C° 0 mm 5 mps 762 mmHg 84%
    04:00 0°C° 0 mm 5 mps 762 mmHg 84%
    05:00 0°C° 0 mm 5 mps 763 mmHg 84%
    06:00 0°C° 0 mm 4 mps 763 mmHg 84%
    07:00 0°C° 0 mm 4 mps 763 mmHg 84%
    08:00 0°C° 0 mm 4 mps 763 mmHg 83%
    09:00 +1°C° 0 mm 4 mps 764 mmHg 82%
    10:00 +3°C° 0 mm 4 mps 764 mmHg 80%
    11:00 +3°C° 0 mm 4 mps 764 mmHg 78%
    12:00 +3°C° 0 mm 5 mps 764 mmHg 76%
    13:00 +5°C° 0 mm 4 mps 764 mmHg 77%
    14:00 +5°C° 0 mm 4 mps 765 mmHg 78%
    15:00 +5°C° 0 mm 3 mps 765 mmHg 79%
    16:00 +4°C° 0 mm 4 mps 765 mmHg 81%
    17:00 +3°C° 0 mm 4 mps 764 mmHg 84%
    18:00 +2°C° 0 mm 5 mps 764 mmHg 86%
    19:00 +2°C° 0 mm 5 mps 764 mmHg 86%
    20:00 +2°C° 0 mm 5 mps 764 mmHg 86%
    21:00 +2°C° 0 mm 5 mps 764 mmHg 86%
    22:00 +3°C° 0 mm 6 mps 764 mmHg 86%
    23:00 +3°C° 0 mm 6 mps 764 mmHg 87%

    15 December, Saturday

    Time Temperature Precipitation Wind Pressure Humidity
    00:00 +4°C° 0 mm 6 mps 764 mmHg 87%
    01:00 +4°C° 0 mm 7 mps 763 mmHg 87%
    02:00 +5°C° 0 mm 7 mps 762 mmHg 87%
    03:00 +6°C° 0 mm 8 mps 761 mmHg 87%
    04:00 +6°C° 0.4 mm 9 mps 760 mmHg 88%
    05:00 +7°C° 0.4 mm 9 mps 760 mmHg 90%
    06:00 +7°C° 0.4 mm 10 mps 759 mmHg 91%
    07:00 +8°C° 0.5 mm 10 mps 758 mmHg 92%
    08:00 +8°C° 0.5 mm 10 mps 758 mmHg 92%
    09:00 +9°C° 0.5 mm 10 mps 758 mmHg 92%
    10:00 +9°C° 0.8 mm 10 mps 757 mmHg 92%
    11:00 +11°C° 0.8 mm 10 mps 756 mmHg 92%
    12:00 +11°C° 0.8 mm 10 mps 756 mmHg 93%
    13:00 +11°C° 1.1 mm 9 mps 756 mmHg 92%
    14:00 +10°C° 1.1 mm 7 mps 756 mmHg 91%
    15:00 +10°C° 1.1 mm 6 mps 755 mmHg 90%
    16:00 +9°C° 0.2 mm 6 mps 756 mmHg 90%
    17:00 +8°C° 0.2 mm 6 mps 756 mmHg 89%
    18:00 +8°C° 0.2 mm 5 mps 756 mmHg 88%
    19:00 +7°C° 0 mm 5 mps 757 mmHg 88%
    20:00 +7°C° 0 mm 5 mps 757 mmHg 88%
    21:00 +6°C° 0 mm 5 mps 758 mmHg 88%
    22:00 +7°C° 0.1 mm 5 mps 758 mmHg 88%
    23:00 +7°C° 0.1 mm 5 mps 758 mmHg 87%
    Show more